User: anonymous   Login
Location: Unspecified
(0.0000°N, 0.0000°E)
Time: 14:15:56
(UTC+02:00)
Language:

CZ-4B R/B - Orbit

View from above orbital plane
View from above orbital plane
View from above satellite
View from above satellite

Ground track
Ground track

The orbit data is extracted from the following two-line orbital elements,

1 33410U 08053C   16268.00392487  .00001710  00000-0  12981-3 0  9996
2 33410  97.6928 235.6832 0121360   5.2366 355.0093 14.97899248430933
Epoch (UTC): 24 September 2016 00:05:39
Eccentricity: 0.0121360
inclination: 97.6928°
perigee height: 489 km
apogee height: 658 km
right ascension of ascending node: 235.6832°
argument of perigee: 5.2366°
revolutions per day: 14.97899248
mean anomaly at epoch: 355.0093°
orbit number at epoch: 43093

The dashed part of the orbit path shows where the satellite is in the earth's shadow,  

DLR